Location: Innsbruck
(47.2657°N, 11.3914°E)
Time: 01:53:22
(UTC+02:00)

Envisat - Pass Details

Date: 03 February 2023
Orbit: 763 x 765 km, 98.2° (Epoch: 28 March)

Event Time Altitude Azimuth Distance (km) Brightness Sun altitude
Rises 03:22:58 0° 24° (NNE) 3,244 6.8 -42.9°
Reaches altitude 10° 03:25:43 10° 39° (NE) 2,312 6.0 -42.4°
Enters shadow 03:26:26 13° 44° (NE) 2,102 5.8 -42.3°
